Weather History for Ainsworth, NE

Change the Weather History Date:

Thursday, September 13, 2012

  Actual Average Record
Temperature  
Mean Temperature 58 °F -  
Max Temperature 77 °F 76 °F 93 °F (2000)
Min Temperature 41 °F 51 °F 34 °F (2014)
Degree Days  
Heating Degree Days 6    
Growing Degree Days 8 (Base 50)    
Moisture  
Dew Point 39 °F    
Average Humidity 59    
Maximum Humidity 97    
Minimum Humidity 19    
Precipitation  
Precipitation 0.00 in - - ()
Sea Level Pressure  
Sea Level Pressure 30.36 in    
Wind  
Wind Speed 6 mph (WSW)    
Max Wind Speed 18 mph    
Max Gust Speed 23 mph    
Visibility 10 miles    
Events      
Averages and records for this station are not official NWS values.
T = Trace of Precipitation, MM = Missing Value Source: NWS Daily Summary

Daily Weather History Graph

Daily Weather History Graph

Search for Another Location

Airport:

Trip Planner

Search our weather history database for the weather conditions in past years. The results will help you decide how hot, cold, wet, or windy it might be!

Date:

Astronomy

Sep. 13, 2012 Rise Set
Actual Time 7:18 AM CDT 7:52 PM CDT
Civil Twilight 6:49 AM CDT 8:20 PM CDT
Nautical Twilight 6:16 AM CDT 8:54 PM CDT
Astronomical Twilight 5:41 AM CDT 9:28 PM CDT
Moon 4:37 AM CDT (9/13) 6:17 PM CDT (9/13)
Length of Visible Light 13h 30m
Length of Day
12h 34m
Waning Crescent, 7% of the Moon is Illuminated
Sep 13
Waning Crescent
Sep 15
New
Sep 22
First Quarter
Sep 29
Full
Oct 8
Last Quarter

Hourly Weather History & Observations

Time (CDT) Temp. Windchill Dew Point Humidity Pressure Visibility Wind Dir Wind Speed Gust Speed Precip Events Conditions
12:15 AM 48.2 °F - 46.8 °F 95% 30.34 in 10.0 mi WSW 5.8 mph - N/A   Clear
12:35 AM 47.8 °F - 46.4 °F 95% 30.35 in 10.0 mi West 3.5 mph - N/A   Clear
12:55 AM 47.3 °F - 45.9 °F 95% 30.36 in 10.0 mi West 4.6 mph - N/A   Clear
1:15 AM 46.4 °F 44.3 °F 45.5 °F 97% 30.35 in 10.0 mi West 4.6 mph - N/A   Clear
1:35 AM 45.7 °F 44.4 °F 44.8 °F 97% 30.36 in 10.0 mi West 3.5 mph - N/A   Clear
1:55 AM 45.7 °F 43.4 °F 45.0 °F 97% 30.36 in 10.0 mi West 4.6 mph - N/A   Clear
2:15 AM 46.4 °F 44.3 °F 45.5 °F 97% 30.36 in 10.0 mi West 4.6 mph - N/A   Clear
2:35 AM 46.0 °F 43.9 °F 45.0 °F 96% 30.36 in 10.0 mi West 4.6 mph - N/A   Clear
2:55 AM 45.7 °F 43.4 °F 44.8 °F 97% 30.36 in 10.0 mi WSW 4.6 mph - N/A   Clear
3:15 AM 45.5 °F 43.2 °F 44.6 °F 97% 30.37 in 10.0 mi West 4.6 mph - N/A   Clear
3:35 AM 45.3 °F 44.0 °F 44.4 °F 97% 30.37 in 10.0 mi West 3.5 mph - N/A   Clear
3:55 AM 45.5 °F 44.2 °F 44.6 °F 97% 30.37 in 10.0 mi West 3.5 mph - N/A   Clear
4:15 AM 44.6 °F 42.2 °F 43.7 °F 97% 30.37 in 10.0 mi WSW 4.6 mph - N/A   Clear
4:35 AM 44.6 °F 43.1 °F 43.9 °F 97% 30.37 in 10.0 mi WSW 3.5 mph - N/A   Clear
4:55 AM 44.8 °F 42.4 °F 43.9 °F 97% 30.37 in 10.0 mi WSW 4.6 mph - N/A   Clear
5:15 AM 44.1 °F 42.5 °F 43.2 °F 97% 30.37 in 10.0 mi WSW 3.5 mph - N/A   Clear
5:35 AM 44.4 °F 42.0 °F 43.3 °F 96% 30.37 in 10.0 mi West 4.6 mph - N/A   Clear
5:55 AM 43.7 °F 41.1 °F 42.6 °F 96% 30.38 in 10.0 mi WSW 4.6 mph - N/A   Clear
6:15 AM 43.3 °F 41.7 °F 42.3 °F 96% 30.38 in 10.0 mi WSW 3.5 mph - N/A   Clear
6:35 AM 42.8 °F 41.1 °F 41.0 °F 93% 30.39 in 10.0 mi West 3.5 mph - N/A   Clear
6:55 AM 42.1 °F 40.2 °F 41.0 °F 96% 30.40 in 10.0 mi WSW 3.5 mph - N/A   Clear
7:15 AM 42.1 °F 40.2 °F 41.4 °F 97% 30.40 in 10.0 mi WSW 3.5 mph - N/A   Clear
7:35 AM 41.9 °F 40.0 °F 41.0 °F 97% 30.40 in 10.0 mi WSW 3.5 mph - N/A   Clear
7:55 AM 42.3 °F - 41.5 °F 97% 30.41 in 10.0 mi Calm Calm - N/A   Clear
8:15 AM 44.6 °F 43.1 °F 42.8 °F 93% 30.41 in 10.0 mi West 3.5 mph - N/A   Clear
8:35 AM 47.1 °F - 45.0 °F 92% 30.42 in 10.0 mi WSW 4.6 mph - N/A   Clear
8:55 AM 49.8 °F - 45.5 °F 85% 30.42 in 10.0 mi West 5.8 mph - N/A   Clear
9:15 AM 51.4 °F - 45.9 °F 81% 30.43 in 10.0 mi West 5.8 mph - N/A   Clear
9:55 AM 57.0 °F - 45.3 °F 65% 30.43 in 10.0 mi WSW 5.8 mph - N/A   Clear
10:15 AM 60.3 °F - 43.0 °F 53% 30.43 in 10.0 mi West 6.9 mph - N/A   Clear
10:35 AM 62.1 °F - 38.5 °F 42% 30.43 in 10.0 mi WSW 8.1 mph - N/A   Clear
10:55 AM 63.5 °F - 35.8 °F 36% 30.44 in 10.0 mi WSW 11.5 mph - N/A   Clear
11:15 AM 65.3 °F - 32.7 °F 30% 30.43 in 10.0 mi WSW 12.7 mph - N/A   Clear
11:35 AM 66.2 °F - 31.5 °F 27% 30.43 in 10.0 mi WSW 11.5 mph - N/A   Clear
11:55 AM 67.3 °F - 31.1 °F 26% 30.42 in 10.0 mi SW 11.5 mph - N/A   Clear
12:15 PM 68.4 °F - 30.7 °F 25% 30.42 in 10.0 mi SW 12.7 mph - N/A   Clear
12:35 PM 68.9 °F - 28.9 °F 23% 30.41 in 10.0 mi SW 11.5 mph 17.3 mph N/A   Clear
12:55 PM 70.2 °F - 29.7 °F 22% 30.40 in 10.0 mi SW 10.4 mph 18.4 mph N/A   Clear
1:15 PM 70.7 °F - 29.1 °F 21% 30.39 in 10.0 mi WSW 16.1 mph 23.0 mph N/A   Clear
1:35 PM 71.6 °F - 28.2 °F 20% 30.39 in 10.0 mi SW 9.2 mph - N/A   Clear
1:55 PM 72.5 °F - 28.6 °F 20% 30.38 in 10.0 mi SW 12.7 mph 20.7 mph N/A   Clear
2:15 PM 73.2 °F - 28.9 °F 19% 30.37 in 10.0 mi SW 15.0 mph - N/A   Clear
2:35 PM 73.4 °F - 29.5 °F 20% 30.36 in 10.0 mi SW 16.1 mph 20.7 mph N/A   Clear
2:55 PM 73.9 °F - 30.2 °F 20% 30.36 in 10.0 mi SW 18.4 mph 21.9 mph N/A   Clear
3:15 PM 74.5 °F - 30.7 °F 20% 30.35 in 10.0 mi West 11.5 mph 20.7 mph N/A   Clear
3:35 PM 74.7 °F - 30.7 °F 20% 30.34 in 10.0 mi SW 11.5 mph 19.6 mph N/A   Clear
3:55 PM 75.4 °F - 30.7 °F 19% 30.33 in 10.0 mi WSW 15.0 mph 20.7 mph N/A   Clear
4:15 PM 75.7 °F - 31.1 °F 19% 30.33 in 10.0 mi SW 12.7 mph 19.6 mph N/A   Clear
4:35 PM 76.3 °F - 32.4 °F 20% 30.32 in 10.0 mi West 13.8 mph 20.7 mph N/A   Clear
4:55 PM 75.9 °F - 33.1 °F 21% 30.32 in 10.0 mi WSW 17.3 mph - N/A   Clear
5:15 PM 76.1 °F - 32.7 °F 21% 30.31 in 10.0 mi WSW 13.8 mph 18.4 mph N/A   Clear
5:35 PM 76.3 °F - 33.4 °F 21% 30.31 in 10.0 mi WSW 8.1 mph - N/A   Clear
5:55 PM 75.6 °F - 35.1 °F 23% 30.31 in 10.0 mi WSW 9.2 mph - N/A   Scattered Clouds
6:15 PM 75.7 °F - 37.0 °F 25% 30.30 in 10.0 mi WSW 10.4 mph - N/A   Scattered Clouds
6:35 PM 75.2 °F - 37.8 °F 26% 30.30 in 10.0 mi WSW 8.1 mph - N/A   Scattered Clouds
6:55 PM 75.2 °F - 39.2 °F 27% 30.30 in 10.0 mi WSW 10.4 mph - N/A   Scattered Clouds
7:15 PM 74.3 °F - 39.4 °F 28% 30.30 in 10.0 mi SW 5.8 mph - N/A   Mostly Cloudy
7:35 PM 71.4 °F - 40.8 °F 33% 30.30 in 10.0 mi SW 4.6 mph - N/A   Scattered Clouds
7:55 PM 68.4 °F - 42.3 °F 39% 30.30 in 7.0 mi SW 5.8 mph - N/A   Scattered Clouds
8:15 PM 66.4 °F - 43.0 °F 43% 30.30 in 10.0 mi SW 5.8 mph - N/A   Scattered Clouds
8:35 PM 64.8 °F - 42.6 °F 45% 30.30 in 10.0 mi SW 4.6 mph - N/A   Scattered Clouds
8:55 PM 63.3 °F - 43.2 °F 48% 30.31 in 10.0 mi West 3.5 mph - N/A   Scattered Clouds
9:15 PM 62.2 °F - 43.7 °F 51% 30.31 in 10.0 mi SW 9.2 mph - N/A   Scattered Clouds
9:35 PM 61.0 °F - 43.3 °F 52% 30.32 in 10.0 mi SW 5.8 mph - N/A   Clear
9:55 PM 60.3 °F - 42.8 °F 53% 30.32 in 10.0 mi SW 6.9 mph - N/A   Clear
10:15 PM 60.4 °F - 42.4 °F 51% 30.33 in 10.0 mi WSW 8.1 mph - N/A   Clear
10:35 PM 57.9 °F - 43.3 °F 58% 30.33 in 10.0 mi WSW 5.8 mph - N/A   Clear
10:55 PM 57.0 °F - 43.9 °F 61% 30.33 in 10.0 mi WSW 4.6 mph - N/A   Clear
11:15 PM 54.5 °F - 44.1 °F 68% 30.33 in 10.0 mi SW 4.6 mph - N/A   Clear
11:35 PM 54.1 °F - 44.1 °F 69% 30.33 in 10.0 mi SW 5.8 mph - N/A   Clear
11:55 PM 52.7 °F - 44.4 °F 73% 30.34 in 10.0 mi SSW 4.6 mph - N/A   Clear